Weather History for HESN - November, 2012

Change the Weather History Date:

Friday, November 23, 2012

  Actual Average Record
Temperature  
Mean Temperature 72 °F -  
Max Temperature 81 °F 75 °F 98 °F (1999)
Min Temperature 63 °F 53 °F 50 °F (2001)
Cooling Degree Days 7    
Growing Degree Days 22 (Base 50)    
Moisture  
Dew Point 43 °F    
Average Humidity 35    
Maximum Humidity 49    
Minimum Humidity 23    
Precipitation  
Precipitation 0.00 in 0.00 in - ()
Sea Level Pressure  
Sea Level Pressure 29.98 in    
Wind  
Wind Speed 7 mph ()    
Max Wind Speed 15 mph    
Max Gust Speed -    
Visibility 6.0 miles    
Events      
Averages and records for this station are not official NWS values.
T = Trace of Precipitation, MM = Missing Value Source: Averaged Metar Reports

Daily Weather History Graph

Daily Weather History Graph

Search for Another Location

Airport or City:

Trip Planner

Search our weather history database for the weather conditions in past years. The results will help you decide how hot, cold, wet, or windy it might be!

Date:

Astronomy

Nov. 23, 2012 Rise Set
Actual Time 6:09 AM EET 5:00 PM EET
Civil Twilight 5:45 AM EET 5:25 PM EET
Nautical Twilight 5:17 AM EET 5:52 PM EET
Astronomical Twilight 4:50 AM EET 6:20 PM EET
Moon 1:41 PM EET (11/23) 1:36 AM EET (11/23)
Length of Visible Light 11h 40m
Length of Day
10h 51m
Waxing Gibbous, 77% of the Moon is Illuminated
Nov 23
Waxing Gibbous
Nov 28
Full
Dec 6
Last Quarter
Dec 13
New
Dec 20
First Quarter

Hourly Weather History & Observations

Time (EET) Temp. Dew Point Humidity Pressure Visibility Wind Dir Wind Speed Gust Speed Precip Events Conditions
12:00 AM 69.8 °F 37.4 °F 31% 29.92 in - NNW 4.6 mph - N/A   Clear
1:00 AM 69.8 °F 37.4 °F 31% 29.92 in - NNW 4.6 mph - N/A   Clear
2:00 AM 68 °F 39 °F 23% 29.91 in 6 mi NW 5.8 mph - -  
2:00 AM 68.0 °F 39.2 °F 35% 29.92 in - NW 5.8 mph - N/A   Clear
3:00 AM 66.2 °F 39.2 °F 37% 29.92 in - NW 4.6 mph - N/A   Clear
4:00 AM 66.2 °F 41.0 °F 40% 29.92 in - NNW 5.8 mph - N/A   Clear
5:00 AM 66.2 °F 41.0 °F 40% 29.95 in - NNW 6.9 mph - N/A   Clear
6:00 AM 64.4 °F 42.8 °F 45% 29.98 in - North 6.9 mph - N/A   Clear
7:00 AM 64.4 °F 44.6 °F 49% 29.98 in - NNW 5.8 mph - N/A   Clear
8:00 AM 67 °F 46 °F 35% 30.00 in 6 mi North 9.2 mph - -  
8:00 AM 68.0 °F 46.4 °F 46% 30.01 in - North 9.2 mph - N/A   Clear
9:00 AM 69.8 °F 46.4 °F 43% 30.04 in - North 8.1 mph - N/A   Clear
10:00 AM 75.2 °F 48.2 °F 38% 30.04 in - North 12.7 mph - N/A   Clear
11:00 AM 78.8 °F 42.8 °F 28% 30.01 in - North 11.5 mph - N/A   Clear
12:00 PM 78.8 °F 42.8 °F 28% 29.98 in - North 11.5 mph - N/A   Clear
1:00 PM 80.6 °F 42.8 °F 26% 29.98 in - North 11.5 mph - N/A   Clear
2:00 PM 80.6 °F 42.8 °F 26% 29.95 in - North 11.5 mph - N/A   Clear
3:00 PM 80.6 °F 42.8 °F 26% 29.98 in - North 12.7 mph - N/A   Clear
4:00 PM 78.8 °F 42.8 °F 28% 29.98 in - North 11.5 mph - N/A   Clear
5:00 PM 77.0 °F 44.6 °F 32% 29.98 in - North 15.0 mph - N/A   Clear
6:00 PM 75.2 °F 46.4 °F 36% 30.01 in - North 11.5 mph - N/A   Clear
7:00 PM 73.4 °F 44.6 °F 36% 30.01 in - North 10.4 mph - N/A   Clear
8:00 PM 71 °F 43 °F 25% 30.02 in 6 mi NNW 11.5 mph - -  
8:00 PM 71.6 °F 42.8 °F 35% 30.04 in - NNW 11.5 mph - N/A   Clear
9:00 PM 69.8 °F 42.8 °F 38% 30.04 in - NNW 11.5 mph - N/A   Clear
10:00 PM 68.0 °F 42.8 °F 40% 30.04 in - NW 6.9 mph - N/A   Clear
11:00 PM 66.2 °F 44.6 °F 46% 30.04 in - NW 9.2 mph - N/A   Clear